User: anonymous   Login
Location: Cherry Road
(34.5193°N, 112.0852°W)
Time: 00:57:49
(UTC-07:00)
Language:

Hubble Space Telescope - Orbit

View from above orbital plane
View from above orbital plane
View from above satellite
View from above satellite

Ground track
Ground track

The orbit data is extracted from the following two-line orbital elements,

1 20580U 90037B   15242.79524144  .00001265  00000-0  69602-4 0  9995
2 20580 028.4710 022.0589 0002811 322.5892 186.4202 15.07652193191089
Epoch (UTC): 30 August 2015 19:05:08
Eccentricity: 0.0002811
inclination: 28.4710°
perigee height: 541 km
apogee height: 545 km
right ascension of ascending node: 22.0589°
argument of perigee: 322.5892°
revolutions per day: 15.07652193
mean anomaly at epoch: 186.4202°
orbit number at epoch: 19108

The dashed part of the orbit path shows where the satellite is in the earth's shadow,  

DLR